Location: Hardenberg
(52.5670°N, 6.6170°E)
Time: 05:05:19
(UTC+01:00)

ISS - Visible Passes

Search period start: 25 February 2018 00:00
Search period end: 07 March 2018 00:00
Orbit: 402 x 407 km, 51.6° (Epoch: 25 February)

Date Brightness Start Highest point End Pass type
(mag) Time Alt. Az. Time Alt. Az. Time Alt. Az.
28 Feb -1.0 06:16:43 10° S 06:18:42 15° SE 06:20:41 10° ESE visible
02 Mar -1.9 06:07:32 10° SSW 06:10:18 25° SSE 06:13:04 10° E visible
03 Mar -1.5 05:16:53 14° S 05:18:11 17° SE 05:20:26 10° E visible
04 Mar -0.8 04:26:47 11° SE 04:26:47 11° SE 04:27:14 10° ESE visible
04 Mar -2.8 05:59:26 14° SW 06:01:56 40° SSE 06:05:03 10° E visible
05 Mar -2.4 05:09:14 27° S 05:09:44 29° SSE 05:12:37 10° E visible
06 Mar -1.1 04:18:58 16° ESE 04:18:58 16° ESE 04:20:03 10° E visible
06 Mar -3.5 05:51:36 21° WSW 05:53:37 58° SSE 05:56:51 10° E visible
